QPF
0.00 0.00 0.01 0.01 0.01 0.01 0.01 0.01 0.02 0.02 0.02 0.02 0.01 0.01 0.01 0.00 0.00 0.00 0.00 0.00 0.01 0.01 0.02 0.01 0.01 0.01 0.01 0.01 0.01 0.01 0.01 0.01 0.01 0.01 0.01 0.01 0.01 0.01 0.00 0.00 0.01 0.01 0.01
0.00 0.01 0.02 0.02 0.01 0.01 0.01 0.01 0.02 0.01 0.02 0.02 0.01 0.01 0.01 0.01 0.01 0.01 0.01 0.01 0.01 0.02 0.03 0.02 0.01 0.01 0.01 0.01 0.01 0.00 0.00 0.00 0.00 0.00 0.00 0.00 0.00 0.00 0.00 0.00 0.01 0.01 0.01
0.00 0.01 0.02 0.02 0.02 0.02 0.02 0.02 0.01 0.02 0.01 0.02 0.01 0.01 0.01 0.01 0.01 0.01 0.01 0.01 0.02 0.02 0.03 0.02 0.01 0.01 0.01 0.00 0.00 0.00 0.00 0.00 0.00 0.00 0.00 0.00 0.00 0.00 0.00 0.00 0.01 0.01 0.01
0.00 0.01 0.03 0.03 0.03 0.03 0.03 0.02 0.02 0.02 0.02 0.02 0.02 0.01 0.01 0.02 0.01 0.01 0.01 0.01 0.01 0.02 0.03 0.01 0.01 0.00 0.00 0.00 0.00 0.00 0.00 0.00 0.00 0.00 0.00 0.00 0.00 0.00 0.00 0.00 0.00 0.00 0.00
0.01 0.02 0.04 0.06 0.07 0.06 0.05 0.04 0.03 0.03 0.03 0.02 0.02 0.01 0.01 0.01 0.01 0.01 0.01 0.01 0.01 0.02 0.01 0.01 0.01 0.00 0.00 0.00 0.00 0.00 0.00 0.00 0.00 0.00 0.00 0.00 0.00 0.01 0.01 0.00 0.00 0.00 0.01
0.01 0.02 0.04 0.06 0.09 0.10 0.10 0.07 0.05 0.05 0.05 0.04 0.03 0.02 0.02 0.01 0.01 0.01 0.01 0.01 0.02 0.02 0.01 0.00 0.00 0.00 0.00 0.00 0.00 0.00 0.00 0.00 0.00 0.00 0.00 0.00 0.00 0.01 0.00 0.00 0.00 0.01 0.01
0.01 0.01 0.03 0.06 0.10 0.11 0.12 0.11 0.07 0.05 0.06 0.06 0.05 0.04 0.04 0.03 0.02 0.02 0.02 0.01 0.01 0.02 0.01 0.00 0.00 0.00 0.00 0.00 0.00 0.00 0.00 0.00 0.00 0.00 0.00 0.00 0.00 0.00 0.00 0.00 0.00 0.00 0.00
0.02 0.02 0.04 0.07 0.10 0.11 0.12 0.13 0.11 0.09 0.07 0.07 0.07 0.08 0.07 0.06 0.05 0.04 0.02 0.02 0.02 0.01 0.01 0.00 0.00 0.00 0.00 0.00 0.00 0.00 0.00 0.00 0.00 0.00 0.00 0.00 0.00 0.00 0.00 0.00 0.00 0.00 0.00
0.03 0.04 0.07 0.10 0.11 0.12 0.13 0.14 0.14 0.12 0.09 0.07 0.07 0.07 0.07 0.06 0.05 0.05 0.04 0.03 0.02 0.02 0.01 0.00 0.00 0.00 0.00 0.00 0.00 0.00 0.00 0.00 0.00 0.00 0.00 0.00 0.00 0.00 0.00 0.00 0.00 0.00 0.00
0.01 0.03 0.06 0.11 0.15 0.15 0.13 0.14 0.15 0.15 0.13 0.11 0.09 0.07 0.07 0.06 0.05 0.06 0.05 0.04 0.03 0.03 0.02 0.00 0.00 0.00 0.00 0.00 0.00 0.00 0.00 0.00 0.00 0.00 0.00 0.00 0.00 0.00 0.00 0.00 0.00 0.00 0.00
0.01 0.01 0.03 0.06 0.10 0.14 0.15 0.13 0.14 0.17 0.16 0.14 0.12 0.09 0.08 0.09 0.08 0.07 0.05 0.04 0.04 0.03 0.02 0.01 0.00 0.00 0.00 0.00 0.00 0.00 0.00 0.00 0.00 0.00 0.00 0.00 0.00 0.00 0.00 0.00 0.00 0.00 0.00
0.01 0.01 0.01 0.03 0.06 0.10 0.13 0.13 0.13 0.14 0.14 0.12 0.09 0.08 0.09 0.08 0.08 0.06 0.06 0.04 0.04 0.03 0.02 0.01 0.01 0.00 0.00 0.00 0.00 0.00 0.00 0.00 0.00 0.00 0.00 0.00 0.00 0.00 0.00 0.00 0.00 0.00 0.00
0.01 0.01 0.01 0.02 0.05 0.08 0.12 0.13 0.13 0.14 0.14 0.12 0.09 0.08 0.09 0.09 0.09 0.08 0.08 0.06 0.05 0.03 0.02 0.01 0.01 0.00 0.00 0.00 0.00 0.00 0.00 0.00 0.00 0.00 0.00 0.00 0.00 0.00 0.00 0.00 0.00 0.00 0.00
0.00 0.01 0.01 0.01 0.02 0.05 0.09 0.11 0.12 0.12 0.14 0.13 0.10 0.09 0.10 0.09 0.08 0.07 0.07 0.06 0.05 0.03 0.03 0.02 0.00 0.00 0.00 0.00 0.00 0.00 0.00 0.00 0.00 0.00 0.00 0.00 0.00 0.00 0.00 0.00 0.00 0.00 0.00
0.00 0.00 0.01 0.01 0.01 0.02 0.06 0.10 0.11 0.11 0.11 0.13 0.13 0.11 0.10 0.08 0.07 0.07 0.07 0.07 0.06 0.04 0.02 0.01 0.01 0.00 0.00 0.00 0.00 0.00 0.00 0.00 0.00 0.00 0.00 0.00 0.00 0.00 0.00 0.00 0.00 0.00 0.00
0.00 0.00 0.01 0.02 0.01 0.01 0.02 0.07 0.10 0.11 0.11 0.13 0.13 0.11 0.11 0.10 0.08 0.07 0.06 0.06 0.05 0.04 0.03 0.01 0.00 0.00 0.00 0.00 0.00 0.00 0.00 0.00 0.00 0.00 0.00 0.00 0.00 0.00 0.00 0.00 0.00 0.00 0.00
0.00 0.00 0.00 0.01 0.03 0.02 0.01 0.03 0.08 0.10 0.11 0.11 0.10 0.10 0.11 0.11 0.09 0.08 0.08 0.06 0.04 0.04 0.04 0.02 0.01 0.01 0.00 0.00 0.00 0.00 0.00 0.00 0.00 0.00 0.00 0.00 0.00 0.00 0.00 0.00 0.00 0.00 0.00
0.00 0.00 0.00 0.01 0.04 0.04 0.03 0.04 0.05 0.08 0.10 0.10 0.10 0.10 0.09 0.10 0.12 0.12 0.09 0.07 0.06 0.05 0.05 0.03 0.02 0.01 0.00 0.00 0.00 0.00 0.00 0.00 0.00 0.00 0.00 0.00 0.00 0.00 0.00 0.00 0.00 0.00 0.00
0.00 0.00 0.00 0.01 0.03 0.06 0.05 0.07 0.06 0.07 0.10 0.12 0.13 0.12 0.09 0.08 0.10 0.13 0.11 0.10 0.09 0.07 0.05 0.04 0.02 0.01 0.01 0.00 0.00 0.00 0.00 0.00 0.00 0.00 0.00 0.00 0.00 0.00 0.00 0.00 0.00 0.00 0.00
0.01 0.01 0.01 0.01 0.02 0.05 0.05 0.07 0.08 0.09 0.10 0.12 0.14 0.14 0.10 0.08 0.08 0.10 0.12 0.13 0.15 0.13 0.09 0.06 0.04 0.02 0.01 0.01 0.00 0.00 0.00 0.00 0.00 0.00 0.00 0.00 0.00 0.00 0.00 0.00 0.00 0.00 0.00
0.01 0.01 0.01 0.02 0.01 0.02 0.02 0.05 0.07 0.08 0.09 0.09 0.10 0.14 0.13 0.10 0.09 0.10 0.10 0.12 0.13 0.14 0.13 0.09 0.06 0.05 0.04 0.02 0.01 0.00 0.00 0.00 0.00 0.00 0.00 0.00 0.00 0.00 0.00 0.00 0.00 0.00 0.00
0.02 0.05 0.03 0.01 0.01 0.02 0.02 0.03 0.04 0.06 0.07 0.07 0.08 0.08 0.10 0.12 0.11 0.12 0.14 0.13 0.12 0.12 0.12 0.11 0.09 0.07 0.05 0.04 0.03 0.01 0.00 0.00 0.00 0.00 0.00 0.00 0.00 0.00 0.00 0.00 0.00 0.00 0.00
0.01 0.03 0.04 0.03 0.02 0.02 0.02 0.02 0.02 0.04 0.06 0.06 0.07 0.07 0.08 0.08 0.10 0.11 0.13 0.15 0.15 0.15 0.13 0.11 0.10 0.09 0.06 0.04 0.03 0.02 0.01 0.01 0.00 0.00 0.00 0.00 0.00 0.00 0.00 0.00 0.00 0.00 0.00
0.02 0.02 0.03 0.05 0.05 0.04 0.02 0.02 0.02 0.03 0.04 0.05 0.06 0.06 0.06 0.06 0.07 0.08 0.10 0.12 0.13 0.13 0.14 0.13 0.11 0.10 0.09 0.07 0.05 0.03 0.02 0.01 0.01 0.00 0.00 0.00 0.00 0.00 0.00 0.00 0.00 0.00 0.00
0.03 0.03 0.04 0.05 0.06 0.06 0.05 0.04 0.04 0.04 0.04 0.04 0.05 0.06 0.06 0.06 0.06 0.05 0.06 0.08 0.11 0.11 0.11 0.13 0.13 0.12 0.10 0.08 0.06 0.04 0.03 0.02 0.01 0.01 0.01 0.00 0.00 0.00 0.00 0.00 0.00 0.00 0.00
0.04 0.04 0.05 0.05 0.06 0.07 0.07 0.07 0.07 0.07 0.05 0.04 0.05 0.06 0.07 0.06 0.06 0.05 0.05 0.06 0.09 0.10 0.11 0.11 0.12 0.13 0.12 0.10 0.08 0.06 0.04 0.02 0.02 0.02 0.02 0.01 0.00 0.00 0.00 0.00 0.00 0.00 0.00
MSLP
1012.53 1012.35 1012.36 1012.52 1012.79 1013.10 1013.40 1013.64 1013.80 1013.90 1013.98 1014.06 1014.19 1014.38 1014.62 1014.90 1015.17 1015.41 1015.59 1015.72 1015.80 1015.88 1015.95 1016.06 1016.19 1016.35 1016.51 1016.65 1016.74 1016.79 1016.80 1016.78 1016.76 1016.76 1016.79 1016.84 1016.91 1016.97 1017.01 1017.01 1016.98 1016.92 1016.84
1012.73 1012.55 1012.55 1012.71 1012.99 1013.32 1013.64 1013.91 1014.09 1014.21 1014.29 1014.37 1014.49 1014.66 1014.87 1015.12 1015.36 1015.57 1015.73 1015.85 1015.93 1016.00 1016.09 1016.22 1016.39 1016.59 1016.79 1016.96 1017.07 1017.13 1017.14 1017.12 1017.09 1017.09 1017.11 1017.16 1017.24 1017.31 1017.35 1017.36 1017.33 1017.26 1017.18
1012.84 1012.64 1012.62 1012.77 1013.06 1013.41 1013.77 1014.08 1014.31 1014.48 1014.59 1014.68 1014.79 1014.94 1015.12 1015.32 1015.52 1015.69 1015.83 1015.92 1016.01 1016.09 1016.21 1016.38 1016.59 1016.83 1017.06 1017.26 1017.39 1017.46 1017.47 1017.44 1017.40 1017.38 1017.40 1017.46 1017.54 1017.62 1017.68 1017.70 1017.67 1017.61 1017.53
1012.88 1012.65 1012.60 1012.74 1013.02 1013.39 1013.78 1014.14 1014.44 1014.66 1014.81 1014.93 1015.05 1015.18 1015.32 1015.48 1015.64 1015.77 1015.88 1015.97 1016.06 1016.18 1016.33 1016.54 1016.80 1017.08 1017.34 1017.56 1017.70 1017.77 1017.77 1017.72 1017.67 1017.65 1017.66 1017.71 1017.80 1017.89 1017.97 1018.01 1018.01 1017.97 1017.89
1012.93 1012.66 1012.58 1012.68 1012.94 1013.31 1013.73 1014.13 1014.47 1014.74 1014.95 1015.10 1015.22 1015.34 1015.46 1015.59 1015.71 1015.82 1015.92 1016.01 1016.12 1016.27 1016.47 1016.73 1017.02 1017.33 1017.62 1017.84 1017.99 1018.05 1018.03 1017.98 1017.91 1017.87 1017.88 1017.93 1018.03 1018.13 1018.23 1018.30 1018.32 1018.29 1018.24
1013.06 1012.76 1012.63 1012.69 1012.92 1013.26 1013.67 1014.08 1014.45 1014.76 1014.99 1015.16 1015.30 1015.41 1015.52 1015.63 1015.73 1015.84 1015.94 1016.06 1016.21 1016.40 1016.64 1016.93 1017.26 1017.59 1017.88 1018.10 1018.24 1018.28 1018.26 1018.19 1018.11 1018.06 1018.07 1018.12 1018.22 1018.34 1018.45 1018.54 1018.58 1018.58 1018.55
1013.33 1013.00 1012.83 1012.83 1013.00 1013.29 1013.66 1014.05 1014.42 1014.73 1014.97 1015.15 1015.29 1015.41 1015.52 1015.62 1015.73 1015.85 1015.98 1016.14 1016.33 1016.56 1016.84 1017.16 1017.49 1017.82 1018.11 1018.32 1018.44 1018.48 1018.44 1018.36 1018.28 1018.24 1018.24 1018.29 1018.39 1018.52 1018.64 1018.74 1018.80 1018.82 1018.80
1013.74 1013.40 1013.18 1013.12 1013.21 1013.43 1013.74 1014.07 1014.40 1014.68 1014.91 1015.08 1015.22 1015.34 1015.45 1015.58 1015.71 1015.86 1016.04 1016.24 1016.47 1016.74 1017.04 1017.37 1017.71 1018.02 1018.29 1018.48 1018.58 1018.61 1018.57 1018.50 1018.42 1018.38 1018.39 1018.45 1018.55 1018.68 1018.80 1018.90 1018.97 1019.00 1018.99
1014.24 1013.89 1013.64 1013.52 1013.54 1013.67 1013.88 1014.13 1014.39 1014.62 1014.81 1014.97 1015.10 1015.22 1015.35 1015.50 1015.67 1015.87 1016.10 1016.35 1016.62 1016.92 1017.24 1017.56 1017.88 1018.16 1018.40 1018.56 1018.65 1018.67 1018.64 1018.58 1018.53 1018.51 1018.53 1018.60 1018.70 1018.82 1018.94 1019.03 1019.09 1019.12 1019.11
1014.75 1014.40 1014.12 1013.95 1013.89 1013.93 1014.04 1014.20 1014.37 1014.53 1014.68 1014.80 1014.92 1015.05 1015.21 1015.39 1015.61 1015.86 1016.14 1016.44 1016.75 1017.06 1017.38 1017.69 1017.97 1018.22 1018.42 1018.56 1018.64 1018.66 1018.65 1018.62 1018.59 1018.60 1018.64 1018.72 1018.82 1018.93 1019.04 1019.12 1019.17 1019.18 1019.16
1015.15 1014.82 1014.52 1014.30 1014.17 1014.12 1014.14 1014.21 1014.29 1014.38 1014.47 1014.57 1014.68 1014.82 1015.00 1015.23 1015.50 1015.80 1016.13 1016.47 1016.81 1017.13 1017.44 1017.73 1017.98 1018.19 1018.36 1018.48 1018.55 1018.58 1018.59 1018.59 1018.60 1018.63 1018.70 1018.79 1018.90 1019.01 1019.10 1019.16 1019.19 1019.18 1019.15
1015.37 1015.05 1014.74 1014.49 1014.30 1014.18 1014.12 1014.10 1014.11 1014.14 1014.19 1014.26 1014.36 1014.52 1014.72 1014.99 1015.31 1015.66 1016.03 1016.41 1016.77 1017.10 1017.40 1017.66 1017.89 1018.07 1018.22 1018.32 1018.39 1018.43 1018.46 1018.48 1018.52 1018.59 1018.68 1018.78 1018.90 1019.01 1019.10 1019.15 1019.17 1019.14 1019.08
1015.37 1015.05 1014.74 1014.46 1014.24 1014.07 1013.95 1013.87 1013.82 1013.80 1013.81 1013.86 1013.96 1014.13 1014.36 1014.66 1015.02 1015.41 1015.82 1016.22 1016.60 1016.94 1017.24 1017.49 1017.70 1017.87 1018.00 1018.09 1018.16 1018.21 1018.26 1018.30 1018.37 1018.45 1018.56 1018.68 1018.81 1018.93 1019.02 1019.07 1019.08 1019.04 1018.97
1015.14 1014.83 1014.52 1014.24 1013.99 1013.80 1013.64 1013.52 1013.44 1013.38 1013.36 1013.40 1013.50 1013.67 1013.92 1014.24 1014.62 1015.04 1015.48 1015.90 1016.30 1016.65 1016.96 1017.21 1017.42 1017.59 1017.72 1017.82 1017.89 1017.94 1017.99 1018.05 1018.12 1018.21 1018.33 1018.46 1018.60 1018.74 1018.85 1018.92 1018.93 1018.90 1018.82
1014.73 1014.43 1014.14 1013.86 1013.63 1013.42 1013.26 1013.12 1013.01 1012.93 1012.90 1012.91 1013.00 1013.17 1013.42 1013.75 1014.14 1014.58 1015.03 1015.47 1015.89 1016.26 1016.58 1016.86 1017.09 1017.27 1017.41 1017.52 1017.59 1017.64 1017.69 1017.73 1017.79 1017.88 1017.99 1018.13 1018.28 1018.44 1018.57 1018.67 1018.71 1018.70 1018.63
1014.21 1013.93 1013.66 1013.42 1013.21 1013.03 1012.87 1012.73 1012.61 1012.52 1012.46 1012.46 1012.53 1012.68 1012.92 1013.24 1013.62 1014.06 1014.52 1014.97 1015.41 1015.80 1016.16 1016.46 1016.72 1016.93 1017.09 1017.21 1017.29 1017.33 1017.36 1017.38 1017.41 1017.47 1017.57 1017.70 1017.86 1018.04 1018.21 1018.34 1018.42 1018.44 1018.39
1013.63 1013.38 1013.16 1012.97 1012.81 1012.67 1012.54 1012.41 1012.29 1012.18 1012.10 1012.08 1012.11 1012.23 1012.45 1012.74 1013.11 1013.54 1013.99 1014.46 1014.91 1015.33 1015.72 1016.06 1016.36 1016.61 1016.80 1016.93 1017.01 1017.04 1017.04 1017.02 1017.01 1017.03 1017.09 1017.21 1017.37 1017.57 1017.76 1017.93 1018.06 1018.12 1018.11
1013.04 1012.83 1012.67 1012.54 1012.45 1012.36 1012.27 1012.17 1012.06 1011.94 1011.84 1011.77 1011.78 1011.86 1012.04 1012.31 1012.65 1013.06 1013.51 1013.97 1014.44 1014.89 1015.31 1015.70 1016.04 1016.33 1016.55 1016.70 1016.77 1016.78 1016.75 1016.68 1016.62 1016.59 1016.62 1016.70 1016.85 1017.05 1017.27 1017.48 1017.64 1017.75 1017.79
1012.44 1012.28 1012.18 1012.13 1012.11 1012.09 1012.05 1011.97 1011.87 1011.74 1011.62 1011.53 1011.50 1011.55 1011.70 1011.93 1012.25 1012.64 1013.08 1013.55 1014.02 1014.50 1014.95 1015.38 1015.76 1016.08 1016.33 1016.49 1016.57 1016.57 1016.50 1016.39 1016.28 1016.20 1016.17 1016.22 1016.34 1016.53 1016.76 1016.98 1017.19 1017.33 1017.42
1011.83 1011.71 1011.67 1011.70 1011.74 1011.78 1011.79 1011.74 1011.65 1011.53 1011.39 1011.29 1011.24 1011.26 1011.39 1011.60 1011.91 1012.28 1012.72 1013.18 1013.67 1014.15 1014.63 1015.09 1015.50 1015.85 1016.12 1016.31 1016.39 1016.37 1016.28 1016.14 1015.98 1015.85 1015.77 1015.78 1015.87 1016.03 1016.25 1016.48 1016.70 1016.89 1017.01
1011.23 1011.12 1011.12 1011.20 1011.30 1011.38 1011.43 1011.41 1011.33 1011.22 1011.09 1010.98 1010.92 1010.95 1011.07 1011.28 1011.58 1011.95 1012.38 1012.85 1013.33 1013.83 1014.32 1014.79 1015.22 1015.60 1015.89 1016.09 1016.18 1016.16 1016.06 1015.90 1015.71 1015.54 1015.42 1015.38 1015.43 1015.56 1015.75 1015.98 1016.21 1016.42 1016.58
1010.66 1010.54 1010.54 1010.63 1010.75 1010.86 1010.92 1010.93 1010.87 1010.77 1010.65 1010.56 1010.52 1010.56 1010.70 1010.92 1011.23 1011.61 1012.04 1012.50 1012.98 1013.47 1013.96 1014.44 1014.87 1015.26 1015.57 1015.78 1015.89 1015.88 1015.79 1015.62 1015.42 1015.23 1015.08 1015.01 1015.02 1015.11 1015.28 1015.49 1015.72 1015.94 1016.13
1010.20 1010.02 1009.98 1010.04 1010.14 1010.24 1010.31 1010.31 1010.26 1010.18 1010.09 1010.03 1010.02 1010.10 1010.26 1010.51 1010.84 1011.22 1011.64 1012.09 1012.56 1013.03 1013.50 1013.96 1014.39 1014.78 1015.09 1015.32 1015.45 1015.47 1015.40 1015.25 1015.06 1014.87 1014.71 1014.61 1014.60 1014.66 1014.80 1015.00 1015.23 1015.46 1015.68
1009.94 1009.67 1009.55 1009.54 1009.58 1009.64 1009.67 1009.66 1009.61 1009.55 1009.48 1009.46 1009.49 1009.60 1009.79 1010.06 1010.40 1010.77 1011.18 1011.61 1012.04 1012.48 1012.92 1013.34 1013.75 1014.12 1014.44 1014.68 1014.83 1014.88 1014.84 1014.73 1014.57 1014.41 1014.26 1014.16 1014.13 1014.18 1014.31 1014.50 1014.73 1014.98 1015.23
1009.99 1009.60 1009.36 1009.25 1009.21 1009.19 1009.16 1009.12 1009.06 1009.00 1008.96 1008.96 1009.02 1009.16 1009.37 1009.64 1009.96 1010.32 1010.69 1011.07 1011.45 1011.83 1012.21 1012.58 1012.95 1013.30 1013.60 1013.85 1014.02 1014.11 1014.11 1014.05 1013.94 1013.81 1013.69 1013.61 1013.59 1013.65 1013.77 1013.97 1014.21 1014.48 1014.76
1010.40 1009.90 1009.55 1009.31 1009.16 1009.04 1008.95 1008.86 1008.77 1008.70 1008.66 1008.67 1008.74 1008.88 1009.08 1009.33 1009.62 1009.92 1010.22 1010.53 1010.83 1011.13 1011.44 1011.75 1012.07 1012.37 1012.65 1012.89 1013.08 1013.19 1013.24 1013.23 1013.16 1013.08 1013.01 1012.96 1012.97 1013.04 1013.19 1013.39 1013.66 1013.96 1014.27
Thickness
5761 5764 5762 5762 5761 5761 5761 5760 5759 5758 5757 5756 5755 5753 5752 5751 5750 5749 5748 5747 5746 5745 5744 5743 5742 5741 5741 5740 5739 5739 5738 5738 5737 5736 5736 5735 5735 5734 5733 5733 5734 5733 5730
5757 5759 5758 5757 5757 5756 5756 5756 5755 5754 5753 5752 5751 5750 5749 5748 5747 5746 5745 5745 5744 5743 5742 5741 5740 5739 5738 5737 5736 5735 5734 5734 5733 5732 5732 5732 5731 5731 5730 5730 5730 5729 5727
5752 5755 5754 5752 5752 5752 5751 5751 5750 5749 5749 5748 5747 5746 5746 5745 5744 5743 5742 5742 5741 5740 5739 5738 5736 5735 5734 5733 5732 5731 5730 5730 5729 5729 5730 5731 5728 5727 5726 5726 5726 5725 5724
5747 5749 5749 5748 5747 5747 5747 5746 5745 5745 5744 5743 5743 5742 5742 5741 5740 5740 5739 5738 5737 5737 5735 5734 5733 5732 5730 5729 5728 5728 5727 5726 5726 5727 5730 5729 5726 5723 5723 5723 5722 5721 5721
5742 5743 5744 5742 5742 5742 5742 5741 5741 5740 5740 5739 5739 5738 5737 5737 5736 5736 5735 5734 5734 5733 5731 5730 5729 5727 5726 5725 5725 5724 5723 5722 5723 5725 5725 5725 5723 5720 5719 5719 5718 5717 5717
5735 5737 5737 5736 5736 5736 5737 5737 5736 5736 5735 5735 5734 5734 5733 5733 5733 5732 5731 5730 5729 5728 5727 5726 5725 5723 5722 5721 5721 5720 5719 5719 5720 5722 5721 5721 5719 5716 5716 5715 5714 5714 5713
5726 5729 5730 5730 5730 5731 5731 5731 5731 5731 5731 5730 5730 5729 5729 5729 5728 5728 5727 5726 5725 5724 5723 5722 5720 5719 5718 5717 5717 5716 5715 5715 5718 5718 5717 5717 5714 5713 5712 5711 5711 5710 5709
5716 5720 5723 5723 5724 5725 5725 5726 5726 5726 5726 5725 5725 5725 5724 5724 5724 5723 5722 5722 5721 5719 5719 5717 5716 5715 5714 5713 5713 5712 5711 5711 5713 5713 5713 5712 5709 5708 5708 5707 5706 5706 5705
5706 5710 5714 5717 5718 5719 5719 5720 5720 5720 5721 5721 5720 5720 5720 5719 5719 5718 5718 5717 5716 5715 5714 5713 5712 5711 5710 5709 5708 5707 5707 5707 5711 5710 5709 5708 5705 5704 5703 5703 5702 5702 5701
5697 5701 5705 5708 5711 5713 5714 5714 5715 5715 5715 5715 5715 5715 5715 5714 5714 5714 5713 5712 5711 5710 5710 5709 5708 5707 5706 5705 5704 5703 5703 5703 5707 5705 5705 5703 5701 5700 5699 5698 5698 5697 5697
5687 5691 5695 5699 5703 5706 5708 5710 5710 5710 5710 5710 5710 5710 5709 5710 5710 5709 5709 5708 5707 5706 5705 5704 5703 5702 5701 5700 5699 5698 5698 5701 5703 5702 5701 5698 5697 5697 5696 5695 5694 5693 5692
5676 5681 5686 5689 5693 5697 5700 5703 5704 5705 5706 5706 5707 5706 5706 5707 5707 5706 5705 5703 5702 5701 5699 5698 5697 5697 5696 5697 5695 5694 5696 5698 5698 5697 5696 5694 5693 5693 5692 5691 5690 5689 5688
5667 5671 5676 5680 5684 5688 5691 5695 5698 5699 5701 5702 5704 5703 5703 5702 5702 5701 5699 5697 5696 5695 5695 5693 5692 5693 5694 5695 5694 5693 5694 5694 5694 5694 5693 5690 5689 5689 5688 5687 5686 5685 5684
5658 5663 5667 5670 5674 5678 5682 5687 5690 5693 5695 5697 5699 5699 5699 5698 5698 5698 5696 5695 5694 5693 5692 5691 5691 5691 5691 5691 5691 5691 5690 5690 5690 5690 5689 5686 5685 5685 5684 5683 5682 5681 5680
5649 5654 5658 5662 5666 5669 5673 5677 5682 5686 5689 5691 5692 5693 5694 5694 5694 5694 5692 5691 5691 5690 5689 5688 5687 5687 5687 5686 5687 5687 5687 5687 5686 5686 5685 5682 5681 5680 5680 5679 5678 5678 5677
5641 5646 5650 5653 5657 5660 5664 5668 5674 5679 5681 5684 5685 5687 5687 5688 5689 5689 5688 5687 5686 5685 5685 5684 5683 5682 5682 5682 5682 5682 5683 5683 5682 5682 5682 5679 5677 5676 5676 5675 5674 5673 5672
5632 5637 5640 5644 5648 5651 5655 5659 5665 5669 5673 5677 5679 5680 5681 5682 5683 5683 5683 5683 5682 5680 5679 5678 5678 5677 5677 5677 5677 5678 5678 5678 5678 5678 5677 5676 5674 5673 5672 5671 5670 5669 5668
5623 5627 5631 5635 5639 5642 5646 5650 5655 5660 5665 5668 5671 5673 5675 5676 5677 5677 5677 5677 5677 5675 5674 5672 5672 5671 5671 5671 5672 5672 5672 5672 5673 5673 5672 5671 5671 5670 5668 5667 5666 5665 5664
5613 5617 5621 5625 5629 5633 5637 5641 5646 5651 5655 5660 5663 5666 5668 5669 5670 5671 5671 5672 5670 5669 5669 5668 5666 5666 5666 5665 5666 5666 5667 5667 5668 5667 5668 5667 5666 5665 5665 5663 5661 5660 5659
5603 5607 5612 5615 5619 5622 5626 5630 5635 5641 5646 5650 5655 5658 5660 5661 5663 5664 5665 5665 5665 5664 5663 5663 5661 5660 5660 5659 5658 5658 5660 5662 5662 5663 5663 5663 5662 5660 5659 5659 5657 5656 5654
5593 5597 5601 5604 5608 5611 5615 5620 5625 5630 5636 5640 5645 5648 5651 5653 5655 5656 5657 5658 5658 5659 5659 5658 5656 5654 5653 5652 5649 5649 5652 5655 5657 5658 5658 5658 5658 5656 5654 5653 5653 5652 5650
5582 5586 5590 5593 5596 5600 5604 5609 5615 5620 5625 5630 5634 5638 5641 5643 5646 5648 5649 5651 5652 5652 5652 5652 5650 5648 5647 5646 5646 5643 5644 5647 5651 5652 5653 5652 5653 5652 5650 5648 5648 5646 5645
5570 5574 5577 5581 5584 5587 5592 5596 5602 5607 5612 5618 5623 5627 5631 5634 5637 5640 5642 5643 5645 5646 5646 5646 5645 5644 5642 5640 5642 5642 5641 5644 5647 5648 5648 5648 5648 5647 5646 5644 5642 5641 5639
5559 5562 5565 5569 5573 5576 5579 5585 5590 5596 5602 5609 5613 5616 5620 5624 5627 5630 5633 5635 5637 5638 5640 5641 5641 5640 5637 5635 5635 5638 5642 5645 5640 5641 5642 5642 5642 5641 5641 5639 5637 5635 5634
5548 5552 5554 5558 5562 5565 5569 5574 5579 5585 5591 5597 5601 5605 5609 5613 5617 5621 5624 5627 5629 5631 5634 5635 5635 5635 5634 5633 5632 5631 5631 5633 5636 5635 5636 5635 5634 5635 5634 5633 5631 5630 5628
5539 5542 5545 5548 5551 5555 5559 5563 5568 5574 5579 5584 5588 5593 5598 5602 5606 5611 5615 5619 5622 5625 5627 5629 5630 5630 5629 5628 5627 5627 5627 5628 5630 5630 5630 5630 5629 5630 5628 5626 5625 5624 5622